Time,TemperatureF,DewpointF,PressureIn,WindDirection,WindDirectionDegrees,WindSpeedMPH,WindSpeedGustMPH,Humidity,HourlyPrecipIn,Conditions,Clouds,dailyrainin,SoftwareType,DateUTC
2013-06-17 00:02:00,65.0,60.0,29.81,West,270,0.0,0.0,85,0.00,,,0.04,,2013-06-17 04:02:00,
2013-06-17 00:12:00,65.0,60.0,29.81,West,270,0.0,0.0,85,0.00,,,0.04,,2013-06-17 04:12:00,
2013-06-17 00:22:00,65.0,60.0,29.81,West,270,0.0,0.0,85,0.00,,,0.04,,2013-06-17 04:22:00,
2013-06-17 00:34:00,65.0,60.0,29.82,West,270,0.0,0.0,85,0.00,,,0.04,,2013-06-17 04:34:00,
2013-06-17 00:43:00,65.0,60.0,29.82,NNW,338,0.0,0.0,85,0.00,,,0.04,,2013-06-17 04:43:00,
2013-06-17 00:53:00,65.0,60.0,29.82,NNW,338,0.0,0.0,85,0.00,,,0.04,,2013-06-17 04:53:00,
2013-06-17 01:02:00,65.0,60.0,29.82,NNW,338,0.0,0.0,85,0.00,,,0.04,,2013-06-17 05:02:00,
2013-06-17 01:12:00,65.0,60.0,29.82,NNW,338,0.0,0.0,85,0.00,,,0.04,,2013-06-17 05:12:00,
2013-06-17 01:22:00,64.0,59.0,29.82,NNW,338,0.0,0.0,85,0.00,,,0.04,,2013-06-17 05:22:00,
2013-06-17 01:33:00,64.0,59.0,29.82,NNW,338,0.0,0.0,85,0.00,,,0.04,,2013-06-17 05:33:00,
2013-06-17 01:44:00,64.0,59.0,29.82,NNW,338,0.0,0.0,85,0.00,,,0.04,,2013-06-17 05:44:00,
2013-06-17 01:53:00,64.0,60.0,29.83,NNW,338,0.0,0.0,86,0.00,,,0.04,,2013-06-17 05:53:00,
2013-06-17 02:02:00,64.0,60.0,29.83,NNW,338,0.0,0.0,86,0.00,,,0.04,,2013-06-17 06:02:00,
2013-06-17 02:12:00,64.0,60.0,29.83,NNW,338,0.0,0.0,86,0.00,,,0.04,,2013-06-17 06:12:00,
2013-06-17 02:22:00,63.0,59.0,29.83,NNW,338,0.0,0.0,86,0.00,,,0.04,,2013-06-17 06:22:00,
2013-06-17 02:33:00,63.0,59.0,29.83,NNW,338,0.0,0.0,86,0.00,,,0.04,,2013-06-17 06:33:00,
2013-06-17 02:43:00,63.0,59.0,29.83,NNW,338,0.0,0.0,86,0.00,,,0.04,,2013-06-17 06:43:00,
2013-06-17 02:53:00,64.0,60.0,29.83,West,270,0.0,0.0,86,0.00,,,0.04,,2013-06-17 06:53:00,
2013-06-17 03:02:00,64.0,60.0,29.83,West,270,0.0,0.0,86,0.00,,,0.04,,2013-06-17 07:02:00,
2013-06-17 03:12:00,64.0,60.0,29.83,NE,45,0.0,0.0,86,0.00,,,0.04,,2013-06-17 07:12:00,
2013-06-17 03:22:00,64.0,60.0,29.83,NE,45,0.0,0.0,86,0.00,,,0.04,,2013-06-17 07:22:00,
2013-06-17 03:33:00,64.0,60.0,29.84,NE,45,0.0,0.0,86,0.00,,,0.04,,2013-06-17 07:33:00,
2013-06-17 03:43:00,64.0,60.0,29.84,NE,45,0.0,0.0,86,0.00,,,0.04,,2013-06-17 07:43:00,
2013-06-17 03:53:00,64.0,60.0,29.84,NE,45,0.0,0.0,86,0.00,,,0.04,,2013-06-17 07:53:00,
2013-06-17 04:02:00,63.0,59.0,29.84,NE,45,0.0,0.0,86,0.00,,,0.04,,2013-06-17 08:02:00,
2013-06-17 04:12:00,63.0,59.0,29.84,NE,45,0.0,0.0,86,0.00,,,0.04,,2013-06-17 08:12:00,
2013-06-17 04:22:00,63.0,59.0,29.84,NE,45,0.0,0.0,86,0.00,,,0.04,,2013-06-17 08:22:00,
2013-06-17 04:34:00,63.0,59.0,29.84,NE,45,0.0,0.0,86,0.00,,,0.04,,2013-06-17 08:34:00,
2013-06-17 04:43:00,63.0,59.0,29.84,NE,45,0.0,0.0,86,0.00,,,0.04,,2013-06-17 08:43:00,
2013-06-17 04:53:00,63.0,59.0,29.84,NE,45,0.0,0.0,86,0.00,,,0.04,,2013-06-17 08:53:00,
2013-06-17 05:02:00,63.0,59.0,29.84,NE,45,0.0,0.0,86,0.00,,,0.04,,2013-06-17 09:02:00,
2013-06-17 05:12:00,63.0,59.0,29.84,NE,45,0.0,0.0,86,0.00,,,0.04,,2013-06-17 09:12:00,
2013-06-17 05:22:00,63.0,59.0,29.84,NE,45,0.0,0.0,86,0.00,,,0.04,,2013-06-17 09:22:00,
2013-06-17 05:34:00,62.0,57.0,29.85,NE,45,0.0,0.0,85,0.00,,,0.04,,2013-06-17 09:34:00,
2013-06-17 05:43:00,62.0,57.0,29.85,NE,45,0.0,0.0,85,0.00,,,0.04,,2013-06-17 09:43:00,
2013-06-17 05:52:00,62.0,57.0,29.85,NE,45,0.0,0.0,85,0.00,,,0.04,,2013-06-17 09:52:00,
2013-06-17 06:02:00,62.0,58.0,29.85,NE,45,0.0,0.0,86,0.00,,,0.04,,2013-06-17 10:02:00,
2013-06-17 06:12:00,62.0,58.0,29.86,NE,45,0.0,0.0,86,0.00,,,0.04,,2013-06-17 10:12:00,
2013-06-17 06:22:00,62.0,58.0,29.86,NE,45,0.0,0.0,86,0.00,,,0.04,,2013-06-17 10:22:00,
2013-06-17 06:33:00,63.0,59.0,29.85,NE,45,0.0,0.0,86,0.00,,,0.04,,2013-06-17 10:33:00,
2013-06-17 06:43:00,63.0,59.0,29.86,NE,45,0.0,0.0,86,0.00,,,0.04,,2013-06-17 10:43:00,
2013-06-17 06:53:00,63.0,59.0,29.86,NE,45,0.0,0.0,86,0.00,,,0.04,,2013-06-17 10:53:00,
2013-06-17 07:02:00,63.0,59.0,29.87,NE,45,0.0,0.0,86,0.00,,,0.04,,2013-06-17 11:02:00,
2013-06-17 07:12:00,64.0,60.0,29.88,NE,45,0.0,0.0,86,0.00,,,0.04,,2013-06-17 11:12:00,
2013-06-17 07:23:00,64.0,60.0,29.88,NE,45,0.0,0.0,86,0.00,,,0.04,,2013-06-17 11:23:00,
2013-06-17 07:33:00,64.0,60.0,29.88,NE,45,0.0,0.0,87,0.00,,,0.04,,2013-06-17 11:33:00,
2013-06-17 07:43:00,64.0,60.0,29.88,NE,45,0.0,0.0,87,0.00,,,0.04,,2013-06-17 11:43:00,
2013-06-17 07:53:00,65.0,61.0,29.88,NE,45,0.0,0.0,87,0.00,,,0.04,,2013-06-17 11:53:00,
2013-06-17 08:02:00,65.0,61.0,29.88,NE,45,0.0,0.0,87,0.00,,,0.04,,2013-06-17 12:02:00,
2013-06-17 08:12:00,66.0,62.0,29.88,NE,45,0.0,0.0,87,0.00,,,0.04,,2013-06-17 12:12:00,
2013-06-17 08:23:00,66.0,62.0,29.89,West,270,0.0,0.0,86,0.00,,,0.04,,2013-06-17 12:23:00,
2013-06-17 08:33:00,67.0,63.0,29.88,WSW,248,0.0,0.0,86,0.00,,,0.04,,2013-06-17 12:33:00,
2013-06-17 08:43:00,68.0,63.0,29.88,WNW,293,0.0,0.0,85,0.00,,,0.04,,2013-06-17 12:43:00,
2013-06-17 08:53:00,68.0,63.0,29.88,NW,315,0.0,0.0,85,0.00,,,0.04,,2013-06-17 12:53:00,
2013-06-17 09:02:00,69.0,64.0,29.88,WNW,293,0.0,0.0,84,0.00,,,0.04,,2013-06-17 13:02:00,
2013-06-17 09:12:00,70.0,65.0,29.88,NW,315,0.0,0.0,84,0.00,,,0.04,,2013-06-17 13:12:00,
2013-06-17 09:22:00,70.0,65.0,29.88,NW,315,0.0,0.0,83,0.00,,,0.04,,2013-06-17 13:22:00,
2013-06-17 09:32:00,71.0,65.0,29.88,WNW,293,0.0,0.0,82,0.00,,,0.04,,2013-06-17 13:32:00,
2013-06-17 09:43:00,72.0,66.0,29.88,NNW,338,0.0,0.0,81,0.00,,,0.04,,2013-06-17 13:43:00,
2013-06-17 09:52:00,73.0,66.0,29.88,SSE,158,0.0,0.0,80,0.00,,,0.04,,2013-06-17 13:52:00,
2013-06-17 10:02:00,73.0,66.0,29.87,NW,315,0.0,0.0,79,0.00,,,0.04,,2013-06-17 14:02:00,
2013-06-17 10:12:00,74.0,67.0,29.87,SSE,158,0.0,0.0,79,0.00,,,0.04,,2013-06-17 14:12:00,
2013-06-17 10:22:00,75.0,68.0,29.87,WSW,248,0.0,0.0,78,0.00,,,0.04,,2013-06-17 14:22:00,
2013-06-17 10:34:00,75.0,67.0,29.87,NW,315,0.0,0.0,76,0.00,,,0.04,,2013-06-17 14:34:00,
2013-06-17 10:43:00,76.0,67.0,29.87,NNW,338,0.0,0.0,75,0.00,,,0.04,,2013-06-17 14:43:00,
2013-06-17 10:53:00,76.0,67.0,29.87,WNW,293,0.0,3.0,74,0.00,,,0.04,,2013-06-17 14:53:00,
2013-06-17 11:02:00,77.0,68.0,29.86,West,270,0.0,0.0,73,0.00,,,0.04,,2013-06-17 15:02:00,
2013-06-17 11:12:00,77.0,67.0,29.86,West,270,0.0,0.0,71,0.00,,,0.04,,2013-06-17 15:12:00,
2013-06-17 11:22:00,78.0,68.0,29.86,NNW,338,0.0,0.0,71,0.00,,,0.04,,2013-06-17 15:22:00,
2013-06-17 11:33:00,78.0,67.0,29.86,West,270,0.0,0.0,69,0.00,,,0.04,,2013-06-17 15:33:00,
2013-06-17 11:43:00,79.0,68.0,29.86,North,0,0.0,0.0,68,0.00,,,0.04,,2013-06-17 15:43:00,
2013-06-17 11:52:00,79.0,68.0,29.86,NNW,338,0.0,2.0,68,0.00,,,0.04,,2013-06-17 15:52:00,
2013-06-17 12:02:00,79.0,67.0,29.86,West,270,0.0,0.0,66,0.00,,,0.04,,2013-06-17 16:02:00,
2013-06-17 12:12:00,80.0,67.0,29.86,North,0,0.0,0.0,65,0.00,,,0.04,,2013-06-17 16:12:00,
2013-06-17 12:22:00,80.0,67.0,29.86,SE,135,0.0,0.0,65,0.00,,,0.04,,2013-06-17 16:22:00,
2013-06-17 12:33:00,81.0,68.0,29.85,SW,225,0.0,6.0,64,0.00,,,0.04,,2013-06-17 16:33:00,
2013-06-17 12:43:00,82.0,68.0,29.85,SE,135,0.0,0.0,62,0.00,,,0.04,,2013-06-17 16:43:00,
2013-06-17 12:53:00,83.0,68.0,29.85,South,180,0.0,4.0,60,0.00,,,0.04,,2013-06-17 16:53:00,
2013-06-17 13:02:00,85.0,68.0,29.85,SW,225,3.0,3.0,57,0.00,,,0.04,,2013-06-17 17:02:00,
2013-06-17 13:12:00,87.0,69.0,29.85,WSW,248,0.0,0.0,56,0.00,,,0.04,,2013-06-17 17:12:00,
2013-06-17 13:22:00,89.0,69.0,29.85,WSW,248,0.0,0.0,52,0.00,,,0.04,,2013-06-17 17:22:00,
2013-06-17 14:02:00,90.0,68.0,29.84,WSW,248,0.0,7.0,49,0.00,,,0.04,,2013-06-17 18:02:00,
2013-06-17 14:12:00,89.0,68.0,29.84,WSW,248,0.0,0.0,50,0.00,,,0.04,,2013-06-17 18:12:00,
2013-06-17 14:33:00,87.0,68.0,29.84,WSW,248,0.0,2.0,53,0.00,,,0.04,,2013-06-17 18:33:00,
2013-06-17 14:43:00,86.0,68.0,29.83,WSW,248,0.0,7.0,55,0.00,,,0.04,,2013-06-17 18:43:00,
2013-06-17 14:53:00,86.0,68.0,29.83,SE,135,0.0,0.0,56,0.00,,,0.04,,2013-06-17 18:53:00,
2013-06-17 15:02:00,86.0,67.0,29.83,WSW,248,0.0,8.0,54,0.00,,,0.04,,2013-06-17 19:02:00,
2013-06-17 15:12:00,86.0,67.0,29.83,WSW,248,0.0,9.0,54,0.00,,,0.04,,2013-06-17 19:12:00,
2013-06-17 15:22:00,87.0,68.0,29.82,WSW,248,4.0,6.0,54,0.00,,,0.04,,2013-06-17 19:22:00,
2013-06-17 15:33:00,88.0,68.0,29.82,WSW,248,0.0,4.0,52,0.00,,,0.04,,2013-06-17 19:33:00,
2013-06-17 15:43:00,87.0,68.0,29.82,SSE,158,7.0,7.0,53,0.00,,,0.04,,2013-06-17 19:43:00,
2013-06-17 15:53:00,86.0,68.0,29.82,SE,140,6.0,9.0,55,0.00,,,0.04,,2013-06-17 19:53:00,
2013-06-17 16:02:00,84.0,67.0,29.81,SW,225,0.0,9.0,57,0.00,,,0.04,,2013-06-17 20:02:00,
2013-06-17 16:11:00,83.0,67.0,29.82,SW,225,0.0,0.0,59,0.00,,,0.04,,2013-06-17 20:11:00,
2013-06-17 16:22:00,83.0,68.0,29.82,SE,143,3.0,4.0,60,0.00,,,0.04,,2013-06-17 20:22:00,
2013-06-17 16:34:00,83.0,67.0,29.82,SE,135,3.0,7.0,58,0.00,,,0.04,,2013-06-17 20:34:00,
2013-06-17 16:43:00,82.0,65.0,29.83,WSW,248,0.0,9.0,57,0.00,,,0.04,,2013-06-17 20:43:00,
2013-06-17 16:52:00,81.0,65.0,29.81,WSW,248,2.0,2.0,58,0.00,,,0.04,,2013-06-17 20:52:00,
2013-06-17 17:02:00,81.0,65.0,29.81,WSW,248,2.0,3.0,58,0.00,,,0.04,,2013-06-17 21:02:00,
2013-06-17 17:12:00,82.0,65.0,29.81,WSW,248,2.0,3.0,56,0.00,,,0.04,,2013-06-17 21:12:00,
2013-06-17 17:22:00,81.0,64.0,29.81,WSW,248,0.0,0.0,56,0.00,,,0.04,,2013-06-17 21:22:00,
2013-06-17 17:33:00,80.0,64.0,29.81,WSW,248,0.0,5.0,58,0.00,,,0.04,,2013-06-17 21:33:00,
2013-06-17 17:43:00,80.0,64.0,29.81,WSW,248,0.0,0.0,59,0.00,,,0.04,,2013-06-17 21:43:00,
2013-06-17 17:52:00,80.0,64.0,29.81,WSW,248,0.0,0.0,59,0.00,,,0.04,,2013-06-17 21:52:00,
2013-06-17 18:01:00,79.0,64.0,29.81,WSW,248,0.0,2.0,60,0.00,,,0.04,,2013-06-17 22:01:00,
2013-06-17 18:11:00,79.0,64.0,29.81,WSW,248,0.0,0.0,60,0.00,,,0.04,,2013-06-17 22:11:00,
2013-06-17 18:22:00,79.0,64.0,29.80,WSW,248,0.0,0.0,60,0.00,,,0.04,,2013-06-17 22:22:00,
2013-06-17 18:34:00,78.0,63.0,29.82,West,270,0.0,2.0,61,0.00,,,0.04,,2013-06-17 22:34:00,
2013-06-17 18:43:00,78.0,64.0,29.83,NW,315,0.0,0.0,62,0.00,,,0.04,,2013-06-17 22:43:00,
2013-06-17 18:53:00,77.0,63.0,29.86,NE,45,0.0,0.0,63,0.00,,,0.04,,2013-06-17 22:53:00,
2013-06-17 19:02:00,75.0,60.0,29.89,NE,55,6.0,9.0,60,0.00,,,0.04,,2013-06-17 23:02:00,
2013-06-17 19:43:00,65.0,58.0,29.88,ENE,68,0.0,0.0,79,0.00,,,0.00,,2013-06-17 23:43:00,
2013-06-17 20:01:00,64.0,58.0,29.88,SSE,158,6.0,6.0,82,0.00,,,0.00,,2013-06-18 00:01:00,
2013-06-17 20:12:00,63.0,58.0,29.88,SSE,158,0.0,4.0,84,0.00,,,0.00,,2013-06-18 00:12:00,
2013-06-17 20:22:00,63.0,58.0,29.88,SSE,158,0.0,0.0,85,0.00,,,0.00,,2013-06-18 00:22:00,
2013-06-17 20:33:00,63.0,59.0,29.89,ESE,113,0.0,0.0,86,0.00,,,0.00,,2013-06-18 00:33:00,
2013-06-17 20:43:00,63.0,59.0,29.89,ESE,113,0.0,0.0,86,0.00,,,0.00,,2013-06-18 00:43:00,
2013-06-17 20:52:00,63.0,59.0,29.89,SE,135,0.0,0.0,86,0.00,,,0.00,,2013-06-18 00:52:00,
2013-06-17 21:01:00,63.0,59.0,29.90,SSE,158,0.0,0.0,87,0.00,,,0.00,,2013-06-18 01:01:00,
2013-06-17 21:12:00,62.0,58.0,29.90,South,180,0.0,0.0,87,0.00,,,0.00,,2013-06-18 01:12:00,
2013-06-17 21:23:00,62.0,58.0,29.90,SSE,158,0.0,0.0,87,0.00,,,0.00,,2013-06-18 01:23:00,
2013-06-17 21:34:00,62.0,58.0,29.90,SSE,158,0.0,0.0,87,0.00,,,0.00,,2013-06-18 01:34:00,
2013-06-17 21:44:00,62.0,58.0,29.91,SSE,158,0.0,0.0,87,0.00,,,0.00,,2013-06-18 01:44:00,
2013-06-17 21:53:00,62.0,58.0,29.91,SSE,158,0.0,0.0,88,0.00,,,0.00,,2013-06-18 01:53:00,
2013-06-17 22:02:00,62.0,58.0,29.91,SSE,158,0.0,0.0,88,0.00,,,0.00,,2013-06-18 02:02:00,
2013-06-17 22:12:00,62.0,58.0,29.91,SSE,158,0.0,0.0,88,0.00,,,0.00,,2013-06-18 02:12:00,
2013-06-17 22:22:00,62.0,58.0,29.90,SSE,158,0.0,0.0,88,0.00,,,0.00,,2013-06-18 02:22:00,
2013-06-17 22:34:00,62.0,58.0,29.90,SSE,158,0.0,0.0,88,0.00,,,0.00,,2013-06-18 02:34:00,
2013-06-17 22:43:00,61.0,57.0,29.90,SSE,158,0.0,0.0,88,0.00,,,0.00,,2013-06-18 02:43:00,
2013-06-17 22:53:00,61.0,57.0,29.91,SSE,158,0.0,0.0,88,0.00,,,0.00,,2013-06-18 02:53:00,
2013-06-17 23:02:00,61.0,58.0,29.91,SSE,158,0.0,0.0,89,0.00,,,0.00,,2013-06-18 03:02:00,
2013-06-17 23:12:00,61.0,58.0,29.90,SE,135,0.0,0.0,89,0.00,,,0.00,,2013-06-18 03:12:00,
2013-06-17 23:23:00,61.0,58.0,29.90,SSE,158,3.0,3.0,89,0.00,,,0.00,,2013-06-18 03:23:00,
2013-06-17 23:34:00,61.0,58.0,29.91,SSE,158,0.0,0.0,89,0.00,,,0.00,,2013-06-18 03:34:00,
2013-06-17 23:43:00,60.0,57.0,29.90,SSE,158,0.0,0.0,89,0.00,,,0.00,,2013-06-18 03:43:00,
2013-06-17 23:53:00,60.0,57.0,29.91,SSE,158,0.0,0.0,89,0.00,,,0.00,,2013-06-18 03:53:00,